Dewpoint
71 71 71 71 71 71 71 71 71 71 72 72 72 72 73 73 75 75 75 76 75 75 75 75 76 77 76 77 77 77 78 76 76 75 76 76 76 75 75 74 74 73
71 72 73 72 72 73 72 71 71 71 72 72 73 73 73 74 74 75 75 75 76 75 75 75 76 77 76 76 77 76 76 77 76 77 76 76 76 76 75 75 74 74
71 71 72 71 71 71 71 72 72 72 72 72 73 73 73 74 74 75 75 75 75 75 75 76 76 77 76 76 76 77 76 76 76 75 77 76 75 75 75 75 75 74
71 71 71 71 71 70 71 72 72 73 72 73 72 73 73 73 74 74 74 76 75 75 75 75 76 76 77 77 76 76 76 76 76 76 76 76 76 76 76 76 76 76
71 71 71 71 71 71 72 72 72 72 72 73 73 74 75 74 74 74 74 74 75 74 75 75 76 76 77 77 76 76 76 76 76 76 76 75 75 76 75 76 76 76
71 71 72 72 72 71 71 71 72 72 72 72 73 74 74 74 74 74 74 73 73 73 74 74 75 76 76 76 76 76 76 75 76 76 76 76 75 75 75 76 76 75
70 71 71 72 72 72 71 71 72 73 72 73 74 74 74 74 74 74 74 74 73 74 73 74 75 75 76 76 76 76 76 76 76 76 76 75 76 75 75 75 76 75
70 70 71 72 72 72 72 71 71 72 73 73 73 73 74 74 74 74 74 74 73 73 74 74 75 75 75 75 75 75 75 74 75 75 75 75 75 75 75 75 75 75
70 70 71 71 71 71 71 71 71 72 73 73 72 72 73 73 73 73 74 74 74 74 74 74 75 74 75 75 75 75 75 74 75 75 75 74 74 74 74 75 74 75
70 71 71 71 71 71 71 71 71 72 73 72 72 72 72 73 73 73 73 74 73 74 74 74 74 74 75 75 75 75 75 75 75 75 75 74 74 74 74 74 74 74
71 71 71 71 71 71 71 71 71 71 72 72 72 72 72 72 73 74 73 73 72 73 73 74 74 74 75 74 75 75 75 74 75 75 75 75 74 75 75 75 74 74
71 71 71 71 71 71 71 71 71 71 71 72 72 72 72 72 72 72 72 73 73 73 73 73 74 74 74 74 74 74 74 74 75 75 75 75 75 74 74 75 74 75
71 71 71 71 72 71 71 71 71 71 71 70 71 72 71 71 71 72 72 72 73 73 73 73 73 73 74 74 74 74 73 73 73 74 74 74 74 74 74 74 74 74
71 71 72 72 72 72 72 71 71 70 71 71 71 71 70 70 70 70 71 72 72 73 73 73 73 73 73 74 74 73 73 72 72 72 72 73 73 74 74 74 74 74
72 72 72 72 72 71 71 71 71 71 71 71 71 70 69 70 71 70 71 72 72 73 73 73 73 73 73 73 73 73 72 72 72 72 72 73 73 73 73 74 74 74
71 71 71 71 71 71 71 71 71 71 71 72 71 70 70 71 71 71 71 71 72 72 73 73 72 73 73 74 74 73 72 71 72 72 72 72 72 72 72 72 73 73
71 71 70 70 70 71 71 71 71 71 71 72 72 72 71 71 71 70 70 71 71 71 72 71 72 72 71 66 67 70 73 72 72 72 72 72 71 72 72 72 72 72
70 70 70 70 70 70 70 71 71 71 71 72 71 71 72 71 70 70 70 71 72 71 71 71 71 72 66 67 67 67 71 73 72 71 71 71 71 71 71 71 71 71
69 69 70 70 70 70 71 71 71 71 72 72 71 72 72 71 71 71 70 71 71 71 71 72 72 69 67 67 67 67 68 72 73 73 73 71 71 72 71 72 72 72
69 70 70 70 70 70 70 71 72 72 72 73 73 72 71 71 72 71 71 71 71 71 72 71 69 65 64 64 65 65 65 67 69 69 69 70 71 71 71 71 72 72
70 70 70 70 70 70 70 70 70 71 72 72 72 72 71 71 71 70 70 71 71 70 70 68 64 60 61 62 61 61 63 67 68 68 68 69 71 72 72 72 72 71
69 69 69 69 69 69 69 69 69 70 70 71 72 71 71 72 71 71 70 69 71 71 69 68 64 57 57 57 57 58 63 67 68 69 70 70 71 71 72 73 73 72
67 68 68 68 68 68 68 68 68 69 69 71 71 70 71 70 70 70 71 71 70 70 69 67 64 57 55 55 55 57 61 68 70 71 70 70 70 70 72 72 73 72
67 67 67 67 67 67 67 67 68 69 69 70 70 69 69 70 70 69 70 70 70 68 68 66 63 59 54 54 54 56 63 67 69 70 70 70 71 71 71 72 72 73
67 66 66 67 67 66 67 67 68 69 70 69 69 69 69 70 70 69 68 68 68 67 67 63 63 60 54 53 54 55 63 67 69 70 71 71 70 70 70 71 71 73
65 65 65 65 66 66 66 66 68 68 68 69 69 69 69 70 71 69 66 64 64 64 63 62 62 61 59 53 52 54 58 66 66 68 67 68 69 70 71 71 70 69